Miscellaneous Local Product
Issued by NWS North Platte, NE

Home | Current Version | Previous Version | Graphics & Text | Print | Product List | Glossary On
Versions: 1 2 3 4 5 6 7 8 9 10 11 12 13 14 15 16 17 18 19 20 21 22 23 24 25 26 27 28 29 30 31 32 33 34 35 36 37 38 39 40 41 42 43 44 45 46 47 48 49 50
000
AXUS43 KLBF 221710
MISLBF


WESTERN AND NORTH CENTRAL NEBRASKA HOURLY WEATHER ROUNDUP
NATIONAL WEATHER SERVICE NORTH PLATTE NE
1200 PM CDT SUN APR 22 2018

NOTE: "FAIR" INDICATES FEW OR NO CLOUDS BELOW 12,000 FEET WITH NO
SIGNIFICANT WEATHER AND/OR OBSTRUCTIONS TO VISIBILITY.

NOTE: STATIONS NOT REPORTING VARIABLES SUCH AS SKY/WEATHER OR
PRESSURE ARE PROVIDED BY RAWS AND APRS NETWORKS AND ARE NOT UNDER
NATIONAL WEATHER SERVICE QUALITY CONTROL.

...OBSERVATIONS IN AND NEAR THE EASTERN PANHANDLE OF NEBRASKA...

CITY           SKY/WX    TMP DP  RH WIND       PRES   REMARKS
PINE RIDGE     MOSUNNY   53  41  63 SW7       30.17F
GORDON         FAIR      48  42  79 SW9       30.19F
CHADRON        MOSUNNY   52  40  63 CALM      30.17F
ALLIANCE       PTSUNNY   47  40  76 VRB6      30.19S
SIDNEY         PTSUNNY   48  32  53 CALM      30.20F
CRESCENT LAKE    N/A     50  40  67 S6          N/A
$$

...OBSERVATIONS IN NORTHERN NEBRASKA AND FAR SOUTHERN SOUTH DAKOTA...

CITY           SKY/WX    TMP DP  RH WIND       PRES   REMARKS
WINNER         FAIR      53  35  50 S8G18     30.25F
VALENTINE      PTSUNNY   53  37  54 S9        30.23F
AINSWORTH      MOSUNNY   51  37  59 SW8       30.24F
O`NEILL        SUNNY     58  30  34 NE3       30.26S
THEDFORD       PTSUNNY   53  36  52 S7        30.24F
BROKEN BOW     MOSUNNY   52  39  61 E6        30.24F
ORD            SUNNY     55  35  47 S3        30.24S
ALBION         SUNNY     58  31  36 NE7       30.25S
VALENTINE NWR    N/A     51  36  57 SE6         N/A
HALSEY           N/A     50  35  57 CALM        N/A
BUTTE            N/A     52  36  55 E10         N/A
CHAMBERS         N/A     59  37  43 E3          N/A
EWING            N/A     56  35  45 E6          N/A
$$

...OBSERVATIONS IN SOUTHWEST NEBRASKA AND FAR NORTHEAST COLORADO...

CITY           SKY/WX    TMP DP  RH WIND       PRES   REMARKS
WRAY           CLOUDY    50  37  62 E8        30.23S
HOLYOKE        CLOUDY    52  36  54 E3        30.21F
IMPERIAL       MOSUNNY   50  37  61 VRB5      30.23S
OGALLALA       MOSUNNY   49  40  72 S5        30.23S
NORTH PLATTE   MOSUNNY   52  36  54 SW3       30.24S
MCCOOK         MOSUNNY   51  37  58 NE6       30.23F
LEXINGTON      MOSUNNY   51  41  67 E6        30.25S
STAPLETON        N/A     50  38  62 CALM        N/A
GOTHENBURG       N/A     48  36  62 E3          N/A
CALLAWAY         N/A     47  40  76 NE3         N/A
$$

...OBSERVATIONS IN CENTRAL LINCOLN COUNTY AREA...

CITY           SKY/WX    TMP DP  RH WIND       PRES   REMARKS
N.P. AIRPORT   MOSUNNY   52  36  54 SW3       30.24S
N.P. DOWNTOWN    N/A     50  36  59 E3          N/A
N.P. HILLCREST   N/A     51  38  60 S7          N/A
$$

...OBSERVATIONS ACROSS THE ROCKIES AND WESTERN HIGH PLAINS...

CITY           SKY/WX    TMP DP  RH WIND       PRES   REMARKS
RAPID CITY     SUNNY     57  40  52 E7        30.16S
SCOTTSBLUFF    CLOUDY    46  41  82 W5        30.21S
CHEYENNE       SUNNY     54  32  43 N13G21    30.19R
DENVER         MOSUNNY   52  38  58 VRB5      30.18S
BERTHOUD PASS  CLOUDY    27  16  63 NW18      30.38S WCI  13
MONARCH PASS   SUNNY     32  27  80 SW3       30.49F
ASPEN          SUNNY     49  32  52 CALM      30.26F
STEAMBOAT      FAIR      48  35  61 CALM      30.24F
LARAMIE        SUNNY     50  33  52 N5        30.22S
CASPER         SUNNY     53  37  54 VRB3      30.18F
$$

...OBSERVATIONS ACROSS THE NORTHERN PLAINS...

CITY           SKY/WX    TMP DP  RH WIND       PRES   REMARKS
BISMARCK       SUNNY     59  38  45 SW13G23   30.15F
FARGO          FAIR      57  39  51 S14       30.24S
PIERRE         SUNNY     56  37  49 S14       30.21S
SIOUX FALLS    MOSUNNY   57  33  40 E9        30.29S
$$

...OBSERVATIONS ACROSS THE CENTRAL AND SOUTHERN PLAINS...

CITY           SKY/WX    TMP DP  RH WIND       PRES   REMARKS
OMAHA          PTSUNNY   63  30  28 VRB6G16   30.22S
GRAND ISLAND   SUNNY     56  38  50 NE12      30.24F
KANSAS CITY    CLOUDY    54  44  69 NE13      30.14F
WICHITA        CLOUDY    50  43  77 N16       30.13R
DODGE CITY     PTSUNNY   52  40  63 N15       30.21S
OKLAHOMA CITY  PTSUNNY   54  43  66 N21       30.08F
DALLAS         PTSUNNY   60  44  55 NW18      30.09S
AMARILLO       CLOUDY    51  39  63 N16       30.21S
$$




USA.gov is the U.S. government's official web portal to all federal, state and local government web resources and services.